Weather History for Gwinn, MI

Change the Weather History Date:

Friday, August 30, 2013

  Actual Average (KESC) Record (KESC)
Temperature  
Mean Temperature 66 °F -  
Max Temperature 73 °F 72 °F 92 °F (1961)
Min Temperature 60 °F 56 °F 39 °F (1996)
Cooling Degree Days 2    
Growing Degree Days 16 (Base 50)    
Moisture  
Dew Point 63 °F    
Average Humidity 87    
Maximum Humidity 94    
Minimum Humidity 73    
Precipitation  
Precipitation 0.05 in - - ()
Sea Level Pressure  
Sea Level Pressure 29.87 in    
Wind  
Wind Speed 13 mph (WNW)    
Max Wind Speed 23 mph    
Max Gust Speed 28 mph    
Visibility 10 miles    
Events Rain , Thunderstorm    
Averages and records for this station are not official NWS values.
T = Trace of Precipitation, MM = Missing Value Source: NWS Daily Summary

Daily Weather History Graph

Daily Weather History Graph

Search for Another Location

Airport:

Trip Planner

Search our weather history database for the weather conditions in past years. The results will help you decide how hot, cold, wet, or windy it might be!

Date:

Astronomy

Aug. 30, 2013 Rise Set
Actual Time 7:07 AM EDT 8:31 PM EDT
Civil Twilight 6:36 AM EDT 9:02 PM EDT
Nautical Twilight 5:58 AM EDT 9:40 PM EDT
Astronomical Twilight 5:17 AM EDT 10:20 PM EDT
Moon 1:35 AM EDT (8/30) 4:57 PM EDT (8/30)
Length of Visible Light 14h 26m
Length of Day
13h 23m
Waning Crescent, 29% of the Moon is Illuminated
Aug 30
Waning Crescent
Sep 5
New
Sep 12
First Quarter
Sep 19
Full
Sep 26
Last Quarter

Hourly Weather History & Observations

Time (EDT) Temp. Dew Point Humidity Pressure Visibility Wind Dir Wind Speed Gust Speed Precip Events Conditions
12:17 AM 69.8 °F 65.5 °F 86% 29.91 in 10.0 mi SW 13.8 mph - 0.01 in Rain Light Rain
12:36 AM 68.9 °F 64.9 °F 87% 29.89 in 10.0 mi SW 11.5 mph - 0.01 in Rain Light Rain
12:57 AM 68.5 °F 64.9 °F 88% 29.88 in 10.0 mi SW 10.4 mph - 0.02 in Rain Light Rain
1:17 AM 68.9 °F 65.5 °F 89% 29.87 in 10.0 mi SW 9.2 mph - N/A   Mostly Cloudy
1:36 AM 68.2 °F 65.5 °F 91% 29.86 in 10.0 mi SW 5.8 mph - N/A   Scattered Clouds
1:57 AM 68.2 °F 65.8 °F 92% 29.87 in 10.0 mi SW 9.2 mph - N/A   Clear
2:17 AM 68.9 °F 66.0 °F 90% 29.88 in 10.0 mi WSW 10.4 mph - N/A   Clear
2:37 AM 69.1 °F 65.3 °F 88% 29.86 in 10.0 mi SW 12.7 mph - N/A   Scattered Clouds
2:57 AM 69.1 °F 65.3 °F 88% 29.87 in 10.0 mi SW 17.3 mph - N/A   Scattered Clouds
3:17 AM 69.8 °F 65.3 °F 86% 29.85 in 10.0 mi SW 17.3 mph 24.2 mph N/A   Scattered Clouds
3:37 AM 69.8 °F 65.5 °F 86% 29.83 in 10.0 mi SW 19.6 mph - N/A   Clear
3:56 AM 69.8 °F 64.6 °F 83% 29.82 in 10.0 mi SSW 20.7 mph 27.6 mph N/A   Clear
4:17 AM 70.2 °F 63.5 °F 79% 29.82 in 10.0 mi SSW 23.0 mph 27.6 mph N/A   Clear
4:37 AM 70.5 °F 63.0 °F 77% 29.82 in 10.0 mi SSW 18.4 mph 25.3 mph N/A   Clear
4:57 AM 69.8 °F 64.4 °F 83% 29.80 in 10.0 mi SSW 13.8 mph - N/A Rain Light Rain
5:16 AM 68.4 °F 65.1 °F 89% 29.79 in 10.0 mi SSW 12.7 mph - 0.01 in Rain Heavy Rain
5:37 AM 68.2 °F 65.3 °F 90% 29.78 in 10.0 mi SSW 13.8 mph 20.7 mph 0.03 in Thunderstorm Overcast
5:57 AM 68.4 °F 65.3 °F 90% 29.79 in 10.0 mi SSW 18.4 mph 26.5 mph 0.03 in Rain , Thunderstorm Light Thunderstorms and Rain
6:50 AM 68.0 °F 66.2 °F 94% 29.79 in 10.0 mi WSW 13.8 mph - N/A   Mostly Cloudy
7:55 AM 68.0 °F 66.2 °F 94% 29.79 in 10.0 mi West 4.6 mph - N/A   Overcast
8:50 AM 69.8 °F 68.0 °F 94% 29.79 in 10.0 mi West 4.6 mph - N/A   Overcast
9:50 AM 69.8 °F 66.2 °F 88% 29.78 in 10.0 mi WNW 11.5 mph - N/A   Overcast
10:50 AM 73.4 °F 64.4 °F 73% 29.82 in 10.0 mi NW 12.7 mph 18.4 mph N/A   Overcast
11:10 AM 68.0 °F 64.4 °F 88% 29.81 in 10.0 mi NNW 15.0 mph - N/A   Overcast
11:55 AM 68.0 °F 64.4 °F 88% 29.83 in 10.0 mi North 19.6 mph 26.5 mph N/A   Overcast
12:50 PM 66.2 °F 62.6 °F 88% 29.86 in 5.0 mi NNW 17.3 mph 26.5 mph N/A   Overcast
1:30 PM 64.4 °F 62.6 °F 94% 29.87 in 2.5 mi North 11.5 mph 21.9 mph N/A   Overcast
1:50 PM 64.4 °F 60.8 °F 88% 29.87 in 7.0 mi North 19.6 mph 24.2 mph N/A   Overcast
2:50 PM 64.4 °F 60.8 °F 88% 29.89 in 10.0 mi North 19.6 mph 25.3 mph N/A   Overcast
3:50 PM 66.2 °F 60.8 °F 83% 29.90 in 10.0 mi North 16.1 mph 25.3 mph N/A   Overcast
4:50 PM 68.0 °F 62.6 °F 83% 29.90 in 10.0 mi North 19.6 mph 27.6 mph N/A   Mostly Cloudy
5:55 PM 68.0 °F 60.8 °F 78% 29.91 in 10.0 mi North 17.3 mph 20.7 mph N/A   Scattered Clouds
6:50 PM 68.0 °F 60.8 °F 78% 29.91 in 10.0 mi North 20.7 mph 27.6 mph N/A   Scattered Clouds
7:55 PM 64.4 °F 60.8 °F 88% 29.93 in 10.0 mi North 15.0 mph 23.0 mph N/A   Overcast
8:55 PM 62.6 °F 59.0 °F 88% 29.94 in 10.0 mi North 12.7 mph - N/A   Overcast
9:50 PM 62.6 °F 59.0 °F 88% 29.96 in 10.0 mi North 13.8 mph - N/A   Overcast
10:17 PM 61.7 °F 59.0 °F 91% 29.96 in 10.0 mi North 9.2 mph - N/A   Overcast
10:37 PM 61.3 °F 58.6 °F 91% 29.95 in 10.0 mi North 8.1 mph - N/A   Overcast
10:57 PM 61.0 °F 58.5 °F 91% 29.95 in 10.0 mi NNW 5.8 mph - N/A   Overcast
11:17 PM 60.8 °F 58.3 °F 91% 29.94 in 10.0 mi North 3.5 mph - N/A   Overcast
11:37 PM 60.8 °F 58.3 °F 91% 29.94 in 10.0 mi North 4.6 mph - N/A   Overcast
11:57 PM 60.8 °F 58.3 °F 91% 29.94 in 10.0 mi NNW 4.6 mph - N/A   Overcast